Regional Weather Roundup
Issued by NWS Mobile, AL

Home | Current Version | Previous Version | Text Only | Print | Product List | Glossary On
Versions: 1 2 3 4 5 6 7 8 9 10 11 12 13 14 15 16 17 18 19 20 21 22 23 24 25 26 27
000
ASUS44 KMOB 181812
RWRMOB
REGIONAL WEATHER ROUNDUP
NATIONAL WEATHER SERVICE MOBILE AL
1200 PM CST SAT NOV 18 2017

NOTE: "FAIR" INDICATES FEW OR NO CLOUDS BELOW 12,000 FEET WITH NO
      SIGNIFICANT WEATHER AND/OR OBSTRUCTIONS TO VISIBILITY.

  * THESE STATIONS ARE PART OF THE UNIVERSITY OF SOUTH ALABAMA
    MESONET AND ARE NOT UNDER NWS OR FAA QUALITY CONTROL.

ALZ061>064-181900-
COASTAL ALABAMA

CITY           SKY/WX    TMP DP  RH WIND       PRES   REMARKS
MOBILE REG APT MOSUNNY   79  61  53 SW16G30   29.90F
6HR MIN TEMP:  63; 6HR MAX TEMP:  80;

BROOKLEY FIELD MOSUNNY   80  64  58 SW12G28   29.92F
6HR MIN TEMP:  62; 6HR MAX TEMP:  80;

USA CAMPUS*    NOT AVBL
DOG RIVER*     NOT AVBL


CITY           SKY/WX    TMP DP  RH WIND       PRES   REMARKS
GULF SHORES    MOSUNNY   77  67  70 MISG      29.92F

$$

ALZ051>060-181900-
INTERIOR SOUTHWEST AND SOUTH CENTRAL ALABAMA

CITY           SKY/WX    TMP DP  RH WIND       PRES   REMARKS
GREENVILLE     PTSUNNY   74  61  63 S13       29.87F
6HR MIN TEMP:  53; 6HR MAX TEMP:  75;

EVERGREEN      CLOUDY    77  63  61 SW9       29.89F
6HR MIN TEMP:  52; 6HR MAX TEMP:  77;

ATMORE*          N/A    N/A N/A N/A S15         N/A
ANDALUSIA/OPP  CLOUDY    76  62  62 VRB7      29.90F
6HR MIN TEMP:  52; 6HR MAX TEMP:  79;

ANDALUSIA*       N/A     75  64  69 S16       29.91F
FLORALA APT    PTSUNNY   74  62  66 S14G22    29.93F
6HR MIN TEMP:  54; 6HR MAX TEMP:  74;

FLORALA*         N/A     73  64  73 SE8       30.57F

$$

FLZ001>006-181900-
WESTERN FLORIDA PANHANDLE

CITY           SKY/WX    TMP DP  RH WIND       PRES   REMARKS
PENSACOLA      CLOUDY    77  64  64 S15       29.91F
6HR MIN TEMP:  67; 6HR MAX TEMP:  80;

NAS PENSACOLA  CLOUDY    76  66  71 SW15      29.91F
6HR MIN TEMP:  70; 6HR MAX TEMP:  79;

MILTON         NOT AVBL
WHTNG S FIELD  CLOUDY    79  62  56 S14G22    29.91F
6HR MIN TEMP:  59; 6HR MAX TEMP:  79;



CITY           SKY/WX    TMP DP  RH WIND       PRES   REMARKS
JAY*             N/A     73  63  68 SW20      29.91F
DUKE FIELD     PTSUNNY   75  62  65 S14       29.92F
CRESTVIEW      CLOUDY    74  63  68 S13G21    29.93F
6HR MIN TEMP:  48; 6HR MAX TEMP:  76;

VALPARAISO     PTSUNNY   75  64  68 S13       29.93F
6HR MIN TEMP:  54; 6HR MAX TEMP:  77;

DESTIN         CLOUDY    78  65  63 S9        29.93F
6HR MIN TEMP:  71; 6HR MAX TEMP:  79;


$$

MSZ076-079-181900-
INTERIOR SOUTHEAST MISSISSIPPI

CITY           SKY/WX    TMP DP  RH WIND       PRES   REMARKS
LEAKESVILLE*     N/A     77  63  61 W15       29.88F
AGRICOLA*        N/A     77  64  65 CALM      29.88F

$$

MARINE OBSERVATIONS

STATION/POSITION TIME  TEMP    WIND        PRES    WAVE
                       AIR SEA DIR/SP/G            HT/PER
                 (UTC) (F)     (DEG/KT/KT) (MB)    (FT/S)
KATRINA CUT      1730   73     230/ 15     1013.9F
CEDAR POINT      1730   72     230/ 12     1013.9F
E DAUPHIN ISLAND 1700   74     230/  6/  9 1013.9F
MIDDLE BAY LIGHT 1730   71     210/ 17     1013.5F
MEAHER PARK      1730   72     200/ 11     1012.9F
WEEKS BAY        1645   74                 1014.0F
12 S ORANGE BCH  NOT AVBL
64 S DAUPHIN ISL 1750   77 78  210/ 16/ 21 1014.1F   4/ 5
67 S FORT MORGAN 1730   75     220/ 19     1014.6F

$$

SELECTED LOCATIONS ACROSS THE REGION

CITY           SKY/WX    TMP DP  RH WIND       PRES   REMARKS
NEW ORLEANS    PTSUNNY   83  65  54 SW14      29.88F
GULFPORT       MOSUNNY   78  66  66 S13G22    29.89F
PASCAGOULA AP  SUNNY     78  62  57 SW9G22    29.91F
PASCAGOULA*      N/A     73  66  78 S7          N/A
HATTIESBURG    CLOUDY    77  66  68 S15G24    29.86F
LAUREL         CLOUDY    77  65  66 S15G26    29.85F
MERIDIAN       CLOUDY    76  65  68 S18G24    29.80F
JACKSON        CLOUDY    79  64  60 SW14G28   29.78F
MONTGOMERY     CLOUDY    75  60  59 S12G25    29.87F
TROY           CLOUDY    72  61  68 S10       29.91F
ASHFORD*         N/A     75  64  69 S16       29.91F
DOTHAN         SUNNY     75  58  55 S16G24    29.96F
PANAMA CITY    MOSUNNY   74  61  63 SE13      29.95F

$$





USA.gov is the U.S. government's official web portal to all federal, state and local government web resources and services.